Weather History for Gilze-Rijen, Netherlands

Change the Weather History Date:

Sunday, January 26, 2014

  Actual Average Record
Temperature  
Mean Temperature 42 °F -  
Max Temperature 44 °F 43 °F 53 °F (2002)
Min Temperature 39 °F 33 °F 21 °F (1998)
Degree Days  
Heating Degree Days 24    
Moisture  
Dew Point 38 °F    
Average Humidity 83    
Maximum Humidity 100    
Minimum Humidity 66    
Precipitation  
Precipitation 0.16 in - - ()
Sea Level Pressure  
Sea Level Pressure 29.60 in    
Wind  
Wind Speed 16 mph ()    
Max Wind Speed 25 mph    
Max Gust Speed 34 mph    
Visibility 6.9 miles    
Events Rain    
Averages and records for this station are not official NWS values.
T = Trace of Precipitation, MM = Missing Value Source: Averaged Metar Reports

Daily Weather History Graph

Daily Weather History Graph

Search for Another Location

Airport:

Trip Planner

Search our weather history database for the weather conditions in past years. The results will help you decide how hot, cold, wet, or windy it might be!

Date:

Astronomy

Jan. 26, 2014 Rise Set
Actual Time 8:27 AM CET 5:18 PM CET
Civil Twilight 7:50 AM CET 5:55 PM CET
Nautical Twilight 7:09 AM CET 6:36 PM CET
Astronomical Twilight 6:30 AM CET 7:15 PM CET
Moon 3:49 AM CET (1/26) 12:51 PM CET (1/26)
Length of Visible Light 10h 05m
Length of Day
8h 51m
Waning Crescent, 26% of the Moon is Illuminated
Jan 26
Waning Crescent
Jan 30
New
Feb 6
First Quarter
Feb 15
Full
Feb 22
Last Quarter

Hourly Weather History & Observations

Time (CET) Temp. Windchill Dew Point Humidity Pressure Visibility Wind Dir Wind Speed Gust Speed Precip Events Conditions
12:00 AM 43 °F - 37 °F 72% 29.73 in 12 mi WNW 24.6 mph - - Rain Rain
12:00 AM 42.8 °F 33.5 °F 37.4 °F 81% 29.71 in 6.2 mi WNW 23.0 mph - N/A   Mostly Cloudy
12:05 AM 42.8 °F 33.3 °F 37.4 °F 81% 29.71 in 6.2 mi WNW 24.2 mph - N/A   Mostly Cloudy
12:11 AM 42.8 °F 33.1 °F 37.4 °F 81% 29.71 in 6.2 mi WNW 25.3 mph - N/A   Mostly Cloudy
12:15 AM 42.8 °F 33.1 °F 37.4 °F 81% 29.71 in 6.2 mi WNW 25.3 mph - N/A   Mostly Cloudy
12:25 AM 42.8 °F 33.1 °F 37.4 °F 81% 29.74 in 6.2 mi WNW 25.3 mph - N/A   Mostly Cloudy
12:55 AM 42.8 °F 33.3 °F 37.4 °F 81% 29.74 in 6.2 mi WNW 24.2 mph - N/A   Mostly Cloudy
1:00 AM 43 °F - 37 °F 71% 29.77 in 10 mi WNW 22.4 mph - - Rain Light Drizzle
1:25 AM 42.8 °F 33.5 °F 37.4 °F 81% 29.74 in 6.2 mi WNW 23.0 mph - N/A   Mostly Cloudy
1:30 AM 42.8 °F 33.8 °F 37.4 °F 81% 29.77 in 6.2 mi WNW 21.9 mph - N/A   Mostly Cloudy
1:50 AM 42.8 °F 33.1 °F 37.4 °F 81% 29.77 in 4.3 mi NW 25.3 mph - N/A Rain Rain
1:55 AM 41.0 °F 30.9 °F 37.4 °F 87% 29.77 in 3.7 mi NW 24.2 mph - N/A Rain Light Rain Showers
1:58 AM 41.0 °F 31.4 °F 37.4 °F 87% 29.77 in 6.2 mi WNW 21.9 mph 34.5 mph N/A Rain Light Rain
2:00 AM 42 °F - 38 °F 79% 29.79 in 9 mi NW 20.1 mph - - Rain Light Rain Showers
2:06 AM 42.8 °F 34.5 °F 37.4 °F 81% 29.77 in 6.2 mi NW 18.4 mph - N/A   Mostly Cloudy
2:19 AM 42.8 °F 35.4 °F 37.4 °F 81% 29.77 in 6.2 mi WNW 15.0 mph - N/A   Overcast
2:25 AM 42.8 °F 35.1 °F 37.4 °F 81% 29.80 in 6.2 mi WNW 16.1 mph - N/A   Overcast
2:45 AM 42.8 °F 34.5 °F 37.4 °F 81% 29.80 in 6.2 mi NW 18.4 mph - N/A   Mostly Cloudy
2:55 AM 42.8 °F 34.3 °F 37.4 °F 81% 29.80 in 6.2 mi WNW 19.6 mph - N/A   Mostly Cloudy
3:00 AM 43 °F - 37 °F 72% 29.83 in 9 mi WNW 22.4 mph - - Rain Light Rain Showers
3:02 AM 42.8 °F 33.8 °F 37.4 °F 81% 29.80 in 6.2 mi WNW 21.9 mph - N/A Rain Light Rain
3:08 AM 42.8 °F 34.3 °F 37.4 °F 81% 29.80 in 6.2 mi WNW 19.6 mph - N/A   Mostly Cloudy
3:25 AM 42.8 °F 35.1 °F 35.6 °F 76% 29.83 in 6.2 mi NW 16.1 mph - N/A   Mostly Cloudy
3:31 AM 42.8 °F 35.4 °F 37.4 °F 81% 29.83 in 6.2 mi NW 15.0 mph - N/A   Mostly Cloudy
3:37 AM 42.8 °F 35.4 °F 37.4 °F 81% 29.83 in 6.2 mi NW 15.0 mph - N/A   Overcast
3:55 AM 42.8 °F 35.8 °F 37.4 °F 81% 29.83 in 6.2 mi NW 13.8 mph - N/A   Overcast
4:00 AM 43 °F - 37 °F 71% 29.86 in 11 mi NW 13.4 mph - - Rain Light Drizzle
4:25 AM 42.8 °F 35.8 °F 37.4 °F 81% 29.86 in 6.2 mi WNW 13.8 mph - N/A   Overcast
4:55 AM 41.0 °F 33.5 °F 35.6 °F 81% 29.86 in 6.2 mi WNW 13.8 mph - N/A   Mostly Cloudy
5:00 AM 42 °F - 35 °F 70% 29.87 in 11 mi WNW 13.4 mph - - Rain Drizzle
5:25 AM 41.0 °F 34.7 °F 35.6 °F 81% 29.86 in 6.2 mi West 10.4 mph - N/A   Mostly Cloudy
5:55 AM 41.0 °F 35.8 °F 35.6 °F 81% 29.89 in 6.2 mi West 8.1 mph - N/A   Mostly Cloudy
6:00 AM 41 °F - 36 °F 77% 29.89 in 11 mi West 6.7 mph - -   Partly Cloudy
6:25 AM 41.0 °F 36.4 °F 37.4 °F 87% 29.86 in 6.2 mi West 6.9 mph - N/A   Scattered Clouds
6:55 AM 41.0 °F 36.4 °F 37.4 °F 87% 29.89 in 6.2 mi West 6.9 mph - N/A   Mostly Cloudy
7:00 AM 41 °F - 36 °F 77% 29.89 in 9 mi West 6.7 mph - -   Partly Cloudy
7:25 AM 42.8 °F 37.5 °F 37.4 °F 81% 29.89 in 6.2 mi West 9.2 mph - N/A   Mostly Cloudy
7:55 AM 42.8 °F 38.6 °F 35.6 °F 76% 29.86 in 6.2 mi West 6.9 mph - N/A   Overcast
8:00 AM 42 °F - 36 °F 74% 29.89 in 9 mi West 6.7 mph - -   Overcast
8:18 AM 41.0 °F 35.8 °F 37.4 °F 87% 29.86 in 6.2 mi West 8.1 mph - N/A   Overcast
8:25 AM 42.8 °F 38.0 °F 37.4 °F 81% 29.86 in 6.2 mi West 8.1 mph - N/A   Overcast
8:29 AM 42.8 °F 38.0 °F 37.4 °F 81% 29.86 in 6.2 mi West 8.1 mph - N/A   Mostly Cloudy
8:55 AM 41.0 °F 35.8 °F 35.6 °F 81% 29.86 in 6.2 mi WSW 8.1 mph - N/A   Overcast
9:00 AM 42 °F - 36 °F 73% 29.88 in 11 mi WSW 6.7 mph - -   Overcast
9:25 AM 41.0 °F 38.0 °F 37.4 °F 87% 29.86 in 6.2 mi SW 4.6 mph - N/A   Partly Cloudy
9:55 AM 41.0 °F 37.1 °F 37.4 °F 87% 29.83 in 6.2 mi WSW 5.8 mph - N/A   Partly Cloudy
10:00 AM 42 °F - 37 °F 75% 29.86 in 11 mi WSW 4.5 mph - -   Partly Cloudy
10:25 AM 42.8 °F 38.6 °F 37.4 °F 81% 29.83 in 6.2 mi WSW 6.9 mph - N/A   Mostly Cloudy
10:55 AM 42.8 °F 38.6 °F 37.4 °F 81% 29.80 in 6.2 mi SW 6.9 mph - N/A   Scattered Clouds
11:00 AM 42 °F - 37 °F 75% 29.82 in 11 mi SW 6.7 mph - -   Partly Cloudy
11:25 AM 42.8 °F 37.5 °F 37.4 °F 81% 29.80 in 6.2 mi SSW 9.2 mph - N/A   Overcast
11:55 AM 41.0 °F 35.2 °F 37.4 °F 87% 29.80 in 6.2 mi SW 9.2 mph - N/A   Overcast
12:00 PM 42 °F - 37 °F 75% 29.81 in 12 mi SSW 8.9 mph - -   Overcast
12:25 PM 41.0 °F 35.2 °F 35.6 °F 81% 29.77 in 6.2 mi SSW 9.2 mph - N/A   Overcast
12:55 PM 41.0 °F 34.3 °F 35.6 °F 81% 29.74 in 6.2 mi SSW 11.5 mph - N/A   Overcast
1:00 PM 41 °F - 36 °F 75% 29.75 in 12 mi SSW 11.2 mph - -   Partly Cloudy
1:25 PM 41.0 °F 34.7 °F 35.6 °F 81% 29.71 in 6.2 mi South 10.4 mph - N/A   Overcast
1:55 PM 41.0 °F 33.9 °F 35.6 °F 81% 29.68 in 6.2 mi South 12.7 mph - N/A   Scattered Clouds
2:00 PM 42 °F - 35 °F 68% 29.69 in 14 mi South 13.4 mph - -   Partly Cloudy
2:25 PM 42.8 °F 36.2 °F 33.8 °F 70% 29.65 in 6.2 mi South 12.7 mph - N/A   Scattered Clouds
2:55 PM 41.0 °F 32.8 °F 33.8 °F 76% 29.62 in 6.2 mi South 16.1 mph - N/A   Mostly Cloudy
3:00 PM 42 °F - 35 °F 66% 29.62 in 15 mi South 15.7 mph - -   Partly Cloudy
3:25 PM 41.0 °F 33.1 °F 33.8 °F 76% 29.59 in 6.2 mi South 15.0 mph - N/A   Mostly Cloudy
3:55 PM 41.0 °F 33.5 °F 35.6 °F 81% 29.56 in 6.2 mi South 13.8 mph - N/A   Mostly Cloudy
4:00 PM 42 °F - 35 °F 68% 29.55 in 12 mi South 13.4 mph - -   Scattered Clouds
4:25 PM 41.0 °F 33.5 °F 35.6 °F 81% 29.50 in 6.2 mi South 13.8 mph - N/A   Mostly Cloudy
4:55 PM 41.0 °F 33.5 °F 35.6 °F 81% 29.47 in 6.2 mi South 13.8 mph - N/A   Drizzle
5:00 PM 41 °F - 36 °F 77% 29.48 in 7 mi South 13.4 mph - - Rain Drizzle
5:13 PM 41.0 °F 33.9 °F 37.4 °F 87% 29.47 in 6.2 mi South 12.7 mph - N/A Rain Light Rain
5:20 PM 41.0 °F 33.5 °F 37.4 °F 87% 29.44 in 6.2 mi South 13.8 mph - N/A Rain Heavy Drizzle
5:25 PM 41.0 °F 33.5 °F 37.4 °F 87% 29.44 in 6.2 mi SSE 13.8 mph - N/A Rain Light Rain
5:29 PM 41.0 °F 33.5 °F 37.4 °F 87% 29.44 in 6.2 mi SSE 13.8 mph - N/A Rain Heavy Drizzle
5:55 PM 41.0 °F 33.1 °F 37.4 °F 87% 29.42 in 6.2 mi South 15.0 mph - N/A Rain Light Rain
6:00 PM 40 °F - 37 °F 86% 29.40 in 7 mi South 15.7 mph - - Rain Rain
6:04 PM 39.2 °F 30.8 °F 37.4 °F 93% 29.39 in 6.2 mi South 15.0 mph - N/A Rain Light Rain Showers
6:16 PM 41.0 °F 32.5 °F 37.4 °F 87% 29.39 in 5.0 mi South 17.3 mph - N/A Rain Rain Showers
6:21 PM 41.0 °F 32.5 °F 37.4 °F 87% 29.36 in 5.6 mi SSE 17.3 mph - N/A Rain Rain
6:25 PM 39.2 °F 29.8 °F 37.4 °F 93% 29.36 in 6.2 mi South 18.4 mph - N/A Rain Light Rain
6:55 PM 39.2 °F 29.8 °F 37.4 °F 93% 29.33 in 5.6 mi South 18.4 mph 29.9 mph N/A Rain Light Rain Showers
7:00 PM 40 °F - 37 °F 87% 29.32 in 5 mi SSE 17.9 mph - - Rain Rain
7:25 PM 41.0 °F 31.6 °F 37.4 °F 87% 29.30 in 4.3 mi South 20.7 mph 33.4 mph N/A Rain Rain Showers
7:35 PM 41.0 °F 31.9 °F 39.2 °F 93% 29.27 in 5.6 mi South 19.6 mph - N/A Rain Light Rain Showers
7:55 PM 41.0 °F 31.6 °F 39.2 °F 93% 29.27 in 5.6 mi South 20.7 mph - N/A Rain Light Rain
8:00 PM 41 °F - 39 °F 88% 29.26 in 4 mi South 17.9 mph - - Rain Light Rain
8:02 PM 41.0 °F 31.9 °F 39.2 °F 93% 29.24 in - South 19.6 mph - N/A Rain Rain
8:25 PM 41.0 °F 31.4 °F 39.2 °F 93% 29.24 in 3.7 mi South 21.9 mph - N/A Rain Light Rain Showers
8:39 PM 41.0 °F 32.5 °F 39.2 °F 93% 29.24 in 4.3 mi South 17.3 mph - N/A Rain Light Rain
8:43 PM 41.0 °F 32.5 °F 39.2 °F 93% 29.21 in 3.7 mi South 17.3 mph - N/A Rain Light Rain
8:55 PM 41.0 °F 32.5 °F 41.0 °F 100% 29.21 in 6.2 mi South 17.3 mph - N/A Rain Light Rain
9:00 PM 42 °F - 41 °F 93% 29.22 in 9 mi SSW 11.2 mph - - Rain Heavy Rain
9:08 PM 42.8 °F 37.0 °F 41.0 °F 93% 29.21 in 6.2 mi SSW 10.4 mph - N/A Rain Light Rain
9:10 PM 42.8 °F 35.8 °F 41.0 °F 93% 29.21 in 3.7 mi SSW 13.8 mph - N/A Rain Light Rain
9:20 PM 42.8 °F 35.1 °F 41.0 °F 93% 29.21 in 5.0 mi South 16.1 mph - N/A Rain Light Rain Showers
9:25 PM 42.8 °F 34.8 °F 41.0 °F 93% 29.21 in 6.2 mi South 17.3 mph - N/A   Mostly Cloudy
9:36 PM 44.6 °F 38.1 °F 42.8 °F 93% 29.21 in 6.2 mi SSW 13.8 mph - N/A   Mostly Cloudy
9:55 PM 44.6 °F 38.1 °F 42.8 °F 93% 29.21 in 6.2 mi SSW 13.8 mph - N/A Rain Light Rain
10:00 PM 44 °F - 43 °F 93% 29.21 in 11 mi SSW 13.4 mph - - Rain Light Rain Showers
10:06 PM 44.6 °F 38.1 °F 42.8 °F 93% 29.21 in 6.2 mi SSW 13.8 mph - N/A   Mostly Cloudy
10:25 PM 44.6 °F 39.2 °F 42.8 °F 93% 29.21 in 6.2 mi SW 10.4 mph - N/A   Mostly Cloudy
10:26 PM 44.6 °F 39.2 °F 42.8 °F 93% 29.21 in 6.2 mi WSW 10.4 mph - N/A   Mostly Cloudy
10:33 PM 44.6 °F 39.2 °F 42.8 °F 93% 29.21 in 6.2 mi WSW 10.4 mph - N/A   Partly Cloudy
10:55 PM 44.6 °F 39.7 °F 41.0 °F 87% 29.21 in 6.2 mi West 9.2 mph - N/A   Partly Cloudy
11:00 PM 44 °F - 41 °F 85% 29.22 in 15 mi WSW 8.9 mph - - Rain Rain
11:25 PM 44.6 °F 40.2 °F 41.0 °F 87% 29.21 in 6.2 mi West 8.1 mph - N/A   Partly Cloudy
11:55 PM 42.8 °F 38.0 °F 39.2 °F 87% 29.24 in 6.2 mi West 8.1 mph - N/A   Overcast